Claremore, OK

9:05 PM CDT on September 24, 2016 (GMT -0500)
Claremore Regional

Weather History for KGCM - August, 2014

Change the Weather History Date:

Saturday, August 9, 2014

  Actual Average (KTUL) Record (KTUL)
Temperature  
Mean Temperature 78 °F 83 °F  
Max Temperature 86 °F 94 °F 114 °F (1936)
Min Temperature 69 °F 73 °F 59 °F (1989)
Cooling Degree Days 12 18  
Month to date cooling degree days 166  
Year to date cooling degree days 1334  
Since 1 June cooling degree days 1100  
Growing Degree Days 28 (Base 50)    
Moisture  
Dew Point 71 °F    
Average Humidity 86    
Maximum Humidity 100    
Minimum Humidity 66    
Precipitation  
Precipitation 0.00 in 0.09 in 2.65 in (1974)
Month to date precipitation 0.81  
Year to date precipitation 25.39  
Sea Level Pressure  
Sea Level Pressure 30.01 in    
Wind  
Wind Speed 3 mph (SE)    
Max Wind Speed 12 mph    
Max Gust Speed 17 mph    
Visibility 9 miles    
Events Rain , Thunderstorm    
T = Trace of Precipitation, MM = Missing Value Source: NWS Daily Summary

Daily Weather History Graph

Daily Weather History Graph

Search for Another Location

Airport or City:

Trip Planner

Search our weather history database for the weather conditions in past years. The results will help you decide how hot, cold, wet, or windy it might be!

Date:

Astronomy

Aug. 09, 2014 Rise Set
Actual Time 6:35 AM CDT 8:19 PM CDT
Civil Twilight 6:07 AM CDT 8:46 PM CDT
Nautical Twilight 5:33 AM CDT 9:20 PM CDT
Astronomical Twilight 4:58 AM CDT 9:55 PM CDT
Moon 7:22 PM CDT (8/9) 5:16 AM CDT (8/9)
Length of Visible Light 14h 39m
Length of Day
13h 44m
Waxing Gibbous, 98% of the Moon is Illuminated
Aug 9
Waxing Gibbous
Aug 10
Full
Aug 17
Last Quarter
Aug 25
New
Sep 2
First Quarter

Hourly Weather History & Observations

Time (CDT) Temp. Heat Index Dew Point Humidity Pressure Visibility Wind Dir Wind Speed Gust Speed Precip Events Conditions
12:35 AM 71.6 °F - 69.8 °F 94% 29.98 in 10.0 mi Calm Calm - N/A   Clear
12:55 AM 69.8 °F - 69.8 °F 100% 29.98 in 10.0 mi Calm Calm - N/A   Clear
1:15 AM 69.8 °F - 69.8 °F 100% 29.98 in 10.0 mi Calm Calm - N/A   Clear
1:35 AM 69.8 °F - 69.8 °F 100% 29.98 in 10.0 mi Calm Calm - N/A   Clear
1:55 AM 69.8 °F - 69.8 °F 100% 29.97 in 10.0 mi NNE 3.5 mph - N/A   Clear
2:15 AM 69.8 °F - 69.8 °F 100% 29.98 in 10.0 mi Calm Calm - N/A   Clear
2:35 AM 69.8 °F - 69.8 °F 100% 29.97 in 10.0 mi ENE 4.6 mph - N/A   Clear
2:55 AM 69.8 °F - 69.8 °F 100% 29.97 in 10.0 mi Calm Calm - N/A   Clear
3:15 AM 69.8 °F - 69.8 °F 100% 29.97 in 7.0 mi Calm Calm - N/A   Clear
3:35 AM 69.8 °F - 69.8 °F 100% 29.97 in 7.0 mi Calm Calm - N/A   Clear
3:55 AM 71.6 °F - 69.8 °F 94% 29.98 in 7.0 mi Calm Calm - N/A   Clear
4:15 AM 71.6 °F - 71.6 °F 100% 29.98 in 7.0 mi Calm Calm - N/A   Clear
4:35 AM 71.6 °F - 69.8 °F 94% 29.98 in 7.0 mi Calm Calm - N/A   Clear
4:55 AM 71.6 °F - 69.8 °F 94% 29.99 in 7.0 mi Calm Calm - N/A   Clear
5:15 AM 71.6 °F - 69.8 °F 94% 30.00 in 7.0 mi Calm Calm - N/A   Clear
5:35 AM 71.6 °F - 71.6 °F 100% 30.00 in 10.0 mi Calm Calm - N/A   Clear
5:55 AM 71.6 °F - 69.8 °F 94% 30.00 in 7.0 mi Calm Calm - N/A   Clear
6:15 AM 71.6 °F - 69.8 °F 94% 30.00 in 7.0 mi Calm Calm - N/A   Clear
6:35 AM 69.8 °F - 69.8 °F 100% 30.00 in 5.0 mi Calm Calm - N/A   Clear
6:55 AM 71.6 °F - 69.8 °F 94% 30.01 in 7.0 mi Calm Calm - N/A   Clear
7:15 AM 71.6 °F - 69.8 °F 94% 30.01 in 7.0 mi Calm Calm - N/A   Clear
7:35 AM 71.6 °F - 71.6 °F 100% 30.01 in 7.0 mi ESE 3.5 mph - N/A   Clear
7:55 AM 73.4 °F - 71.6 °F 94% 30.00 in 7.0 mi ESE 3.5 mph - N/A   Clear
8:15 AM 75.2 °F - 71.6 °F 89% 30.00 in 7.0 mi SE 4.6 mph - N/A   Clear
8:35 AM 77.0 °F - 71.6 °F 83% 30.00 in 10.0 mi SE 5.8 mph - N/A   Clear
8:55 AM 78.8 °F - 73.4 °F 83% 30.02 in 10.0 mi SE 3.5 mph - N/A   Clear
9:15 AM 78.8 °F - 73.4 °F 83% 30.02 in 10.0 mi Calm Calm - N/A   Clear
9:35 AM 78.8 °F - 73.4 °F 83% 30.02 in 10.0 mi Calm Calm - N/A   Clear
9:55 AM 78.8 °F - 73.4 °F 83% 30.03 in 10.0 mi Calm Calm - N/A   Clear
10:15 AM 80.6 °F 85.4 °F 73.4 °F 79% 30.03 in 10.0 mi Calm Calm - N/A   Clear
10:35 AM 80.6 °F 84.6 °F 71.6 °F 74% 30.03 in 10.0 mi WSW 3.5 mph - N/A   Clear
10:55 AM 80.6 °F 85.4 °F 73.4 °F 79% 30.04 in 10.0 mi West 4.6 mph - N/A Thunderstorm Clear
11:15 AM 80.6 °F 85.4 °F 73.4 °F 79% 30.05 in 10.0 mi WNW 8.1 mph - N/A Thunderstorm Clear
11:35 AM 80.6 °F 85.4 °F 73.4 °F 79% 30.05 in 10.0 mi NW 9.2 mph - N/A Thunderstorm Clear
11:55 AM 80.6 °F 85.4 °F 73.4 °F 79% 30.06 in 10.0 mi NW 8.1 mph 16.1 mph N/A   Scattered Clouds
12:15 PM 80.6 °F 85.4 °F 73.4 °F 79% 30.06 in 10.0 mi NW 10.4 mph 17.3 mph N/A Thunderstorm Scattered Clouds
12:35 PM 77.0 °F - 71.6 °F 83% 30.06 in 10.0 mi NNW 3.5 mph - N/A Rain Light Rain
12:55 PM 77.0 °F - 71.6 °F 83% 30.05 in 10.0 mi North 3.5 mph - N/A Rain Light Rain
1:15 PM 77.0 °F - 73.4 °F 89% 30.04 in 10.0 mi ENE 8.1 mph - N/A   Clear
1:35 PM 77.0 °F - 73.4 °F 89% 30.02 in 10.0 mi ENE 9.2 mph - N/A   Clear
1:55 PM 77.0 °F - 71.6 °F 83% 30.01 in 10.0 mi ENE 11.5 mph - N/A   Clear
2:15 PM 78.8 °F - 71.6 °F 78% 30.00 in 10.0 mi East 5.8 mph - N/A   Clear
2:35 PM 78.8 °F - 71.6 °F 78% 30.01 in 10.0 mi Calm Calm - N/A   Clear
2:55 PM 80.6 °F 84.6 °F 71.6 °F 74% 30.02 in 10.0 mi East 5.8 mph - N/A   Clear
3:15 PM 82.4 °F 87.2 °F 71.6 °F 70% 30.02 in 7.0 mi East 5.8 mph - N/A   Clear
3:35 PM 82.4 °F 86.3 °F 69.8 °F 66% 30.03 in 10.0 mi East 5.8 mph - N/A   Clear
3:55 PM 82.4 °F 86.3 °F 69.8 °F 66% 30.02 in 10.0 mi Calm Calm - N/A   Clear
4:15 PM 80.6 °F 83.9 °F 69.8 °F 70% 30.03 in 10.0 mi SE 4.6 mph - N/A   Clear
4:35 PM 82.4 °F 86.3 °F 69.8 °F 66% 30.01 in 10.0 mi ESE 3.5 mph - N/A   Clear
4:55 PM 84.2 °F 89.6 °F 71.6 °F 66% 30.00 in 10.0 mi SE 5.8 mph - N/A   Clear
5:15 PM 86.0 °F 93.4 °F 73.4 °F 66% 30.00 in 10.0 mi SSE 9.2 mph - N/A   Clear
5:35 PM 84.2 °F 90.9 °F 73.4 °F 70% 30.00 in 10.0 mi SSE 8.1 mph - N/A   Clear
5:55 PM 84.2 °F 90.9 °F 73.4 °F 70% 30.00 in 10.0 mi SSE 8.1 mph - N/A   Clear
6:15 PM 82.4 °F 87.2 °F 71.6 °F 70% 30.00 in 10.0 mi SSE 8.1 mph - N/A   Clear
6:35 PM 82.4 °F 87.2 °F 71.6 °F 70% 30.00 in 10.0 mi South 8.1 mph - N/A   Clear
6:55 PM 80.6 °F 84.6 °F 71.6 °F 74% 30.00 in 10.0 mi SSE 8.1 mph - N/A   Clear
7:15 PM 80.6 °F 84.6 °F 71.6 °F 74% 30.00 in 10.0 mi SSE 5.8 mph - N/A   Clear
7:35 PM 78.8 °F - 71.6 °F 78% 30.00 in 10.0 mi SSE 8.1 mph - N/A   Clear
7:55 PM 77.0 °F - 71.6 °F 83% 30.00 in 10.0 mi SSE 8.1 mph - N/A   Clear
8:15 PM 77.0 °F - 69.8 °F 78% 30.00 in 10.0 mi South 6.9 mph - N/A   Clear
8:35 PM 73.4 °F - 69.8 °F 88% 30.00 in 10.0 mi SSE 3.5 mph - N/A   Clear
8:55 PM 73.4 °F - 69.8 °F 88% 30.00 in 10.0 mi SE 5.8 mph - N/A   Clear
9:15 PM 73.4 °F - 69.8 °F 88% 30.01 in 10.0 mi SE 5.8 mph - N/A   Clear
9:35 PM 73.4 °F - 69.8 °F 88% 30.00 in 10.0 mi ESE 4.6 mph - N/A   Clear
9:55 PM 73.4 °F - 69.8 °F 88% 30.00 in 10.0 mi SE 4.6 mph - N/A   Clear
10:15 PM 71.6 °F - 69.8 °F 94% 30.00 in 10.0 mi SSE 3.5 mph - N/A   Clear
11:15 PM 71.6 °F - 69.8 °F 94% 30.02 in 10.0 mi Calm Calm - N/A   Clear
11:35 PM 71.6 °F - 69.8 °F 94% 30.01 in 10.0 mi SSE 4.6 mph - N/A   Clear
11:55 PM 69.8 °F - 69.8 °F 100% 30.00 in 10.0 mi SSE 4.6 mph - N/A   Clear